Weather History for KTOL - March, 2014

Change the Weather History Date:

Saturday, March 29, 2014

  Actual Average Record
Temperature  
Mean Temperature 35 °F 43 °F  
Max Temperature 38 °F 53 °F 80 °F (1963)
Min Temperature 32 °F 33 °F 8 °F (1887)
Degree Days  
Heating Degree Days 30 22  
Month to date heating degree days 1072 806  
Since 1 July heating degree days 6398 5382  
Cooling Degree Days 0 0  
Month to date cooling degree days 0 0  
Year to date cooling degree days 0 0  
Moisture  
Dew Point 29 °F    
Average Humidity 79    
Maximum Humidity 89    
Minimum Humidity 69    
Precipitation  
Precipitation 0.03 in 0.09 in 0.77 in (1979)
Month to date precipitation 1.39 2.29  
Year to date precipitation 8.57 6.41  
Snow  
Snow 0.20 in 0.10 in - ()
Month to date snowfall 11.8 5.5  
Since 1 July snowfall 85.3 36.0  
Snow Depth 0.00 in    
Sea Level Pressure  
Sea Level Pressure 30.11 in    
Wind  
Wind Speed 13 mph (NNE)    
Max Wind Speed 21 mph    
Max Gust Speed 28 mph    
Visibility 9 miles    
Events Snow    
T = Trace of Precipitation, MM = Missing Value Source: NWS Daily Summary

Daily Weather History Graph

Daily Weather History Graph

Search for Another Location

Airport or City:

Trip Planner

Search our weather history database for the weather conditions in past years. The results will help you decide how hot, cold, wet, or windy it might be!

Date:

Astronomy

Mar. 29, 2014 Rise Set
Actual Time 7:23 AM EDT 7:57 PM EDT
Civil Twilight 6:55 AM EDT 8:25 PM EDT
Nautical Twilight 6:22 AM EDT 8:58 PM EDT
Astronomical Twilight 5:48 AM EDT 9:32 PM EDT
Moon 6:32 AM EDT (3/29) 7:00 PM EDT (3/29)
Length of Visible Light 13h 29m
Length of Day
12h 34m
Waning Crescent, 2% of the Moon is Illuminated
Mar 29
Waning Crescent
Mar 30
New
Apr 7
First Quarter
Apr 15
Full
Apr 22
Last Quarter

Hourly Weather History & Observations

Time (EDT) Temp. Windchill Dew Point Humidity Pressure Visibility Wind Dir Wind Speed Gust Speed Precip Events Conditions
12:52 AM 37.9 °F 35.5 °F 30.9 °F 76% 30.17 in 10.0 mi NNE 3.5 mph - N/A   Overcast
1:52 AM 37.9 °F 35.5 °F 30.9 °F 76% 30.17 in 10.0 mi ENE 3.5 mph - N/A   Overcast
2:52 AM 37.9 °F 32.7 °F 32.0 °F 79% 30.16 in 10.0 mi NE 6.9 mph - N/A   Overcast
3:52 AM 37.9 °F 32.1 °F 30.9 °F 76% 30.14 in 10.0 mi ENE 8.1 mph - N/A   Overcast
4:52 AM 37.0 °F 29.3 °F 30.9 °F 79% 30.13 in 10.0 mi ENE 11.5 mph - N/A   Overcast
5:52 AM 36.0 °F 28.0 °F 30.9 °F 82% 30.13 in 10.0 mi ENE 11.5 mph - N/A   Overcast
6:52 AM 36.0 °F 27.1 °F 30.9 °F 82% 30.14 in 10.0 mi ENE 13.8 mph - N/A   Overcast
7:52 AM 35.1 °F 26.9 °F 30.0 °F 82% 30.13 in 10.0 mi ENE 11.5 mph - N/A   Overcast
8:52 AM 35.1 °F 25.9 °F 30.0 °F 82% 30.15 in 10.0 mi NE 13.8 mph - N/A   Overcast
9:52 AM 36.0 °F 26.3 °F 28.9 °F 76% 30.15 in 10.0 mi NE 16.1 mph 23.0 mph N/A   Overcast
10:52 AM 36.0 °F 27.5 °F 28.0 °F 73% 30.16 in 10.0 mi NNE 12.7 mph - N/A   Overcast
11:52 AM 36.0 °F 26.7 °F 28.0 °F 73% 30.14 in 10.0 mi NNE 15.0 mph - N/A   Overcast
12:05 PM 37.4 °F 29.8 °F 28.4 °F 70% 30.12 in 10.0 mi NNE 11.5 mph 21.9 mph N/A   Overcast
12:19 PM 35.6 °F 26.2 °F 28.4 °F 75% 30.11 in 10.0 mi NNE 15.0 mph - N/A   Mostly Cloudy
12:32 PM 35.6 °F 27.1 °F 28.4 °F 75% 30.11 in 10.0 mi NE 12.7 mph - N/A   Overcast
12:52 PM 36.0 °F 25.3 °F 27.0 °F 70% 30.12 in 10.0 mi NNE 19.6 mph 24.2 mph N/A   Overcast
1:04 PM 35.6 °F 25.9 °F 26.6 °F 70% 30.10 in 10.0 mi NE 16.1 mph - N/A   Overcast
1:52 PM 35.1 °F 25.5 °F 28.9 °F 78% 30.10 in 3.0 mi NE 15.0 mph - 0.00 in Snow Light Snow
1:57 PM 33.8 °F 25.8 °F 28.4 °F 81% 30.08 in 1.8 mi NNE 10.4 mph - 0.00 in Snow Light Snow
2:26 PM 33.8 °F 25.8 °F 30.2 °F 87% 30.06 in 2.5 mi NNE 10.4 mph - 0.02 in Snow Light Snow
2:31 PM 33.8 °F 25.8 °F 30.2 °F 87% 30.05 in 3.0 mi NNE 10.4 mph - 0.02 in Snow Light Snow
2:52 PM 34.0 °F 25.5 °F 30.9 °F 89% 30.06 in 4.0 mi NNE 11.5 mph - 0.02 in Snow Light Snow
3:28 PM 35.6 °F 28.0 °F 32.0 °F 87% 30.04 in 8.0 mi NNE 10.4 mph - 0.01 in   Overcast
3:52 PM 35.1 °F 26.4 °F 32.0 °F 89% 30.05 in 8.0 mi NNE 12.7 mph - 0.01 in   Overcast
4:14 PM 35.6 °F 28.0 °F 30.2 °F 81% 30.04 in 8.0 mi North 10.4 mph - 0.00 in   Overcast
4:52 PM 35.1 °F 25.2 °F 30.9 °F 85% 30.04 in 10.0 mi North 16.1 mph 23.0 mph 0.00 in   Overcast
5:52 PM 36.0 °F 26.3 °F 28.9 °F 76% 30.06 in 10.0 mi NNE 16.1 mph 25.3 mph N/A   Overcast
6:52 PM 35.1 °F 25.5 °F 28.0 °F 76% 30.09 in 10.0 mi NNE 15.0 mph 27.6 mph N/A   Overcast
7:30 PM 35.6 °F 25.2 °F 26.6 °F 70% 30.08 in 10.0 mi North 18.4 mph 23.0 mph N/A   Mostly Cloudy
7:52 PM 35.1 °F 25.2 °F 27.0 °F 72% 30.11 in 10.0 mi North 16.1 mph - N/A   Clear
8:52 PM 33.1 °F 22.6 °F 26.1 °F 75% 30.13 in 10.0 mi North 16.1 mph 23.0 mph N/A   Partly Cloudy
9:19 PM 33.8 °F 23.9 °F 24.8 °F 70% 30.12 in 10.0 mi North 15.0 mph 24.2 mph N/A   Mostly Cloudy
9:52 PM 33.1 °F 23.9 °F 25.0 °F 72% 30.14 in 10.0 mi North 12.7 mph 20.7 mph N/A   Overcast
10:52 PM 32.0 °F 24.2 °F 25.0 °F 75% 30.15 in 10.0 mi North 9.2 mph - N/A   Overcast
11:52 PM 32.0 °F 23.0 °F 24.1 °F 73% 30.15 in 10.0 mi North 11.5 mph - N/A   Overcast